Location: Newark
(56.0692°N, 115.8617°E)
Time: 12:40:24
(UTC+00:00)

Vanguard 2 Rocket - Pass Details

Date: 28 May 2020
Orbit: 556 x 3325 km, 32.9° (Epoch: 14 July)

Event Time Altitude Azimuth Distance (km) Brightness Sun altitude
Rises 07:52:37 0° 208° (SSW) 4,464 11.0 37.2°
Reaches altitude 10° 07:56:24 10° 191° (SSW) 3,919 10.6 36.7°
Maximum altitude 08:03:19 19° 151° (SSE) 3,932 10.2 35.8°
Drops below altitude 10° 08:12:35 10° 114° (ESE) 5,456 10.5 34.5°
Sets 08:19:23 0° 101° (E) 6,904 10.9 33.6°
